Caslav, Czech Republic

5:37 AM CEST on September 01, 2016 (GMT +0200)
Caslav

Weather History for LKCV - October, 2012

Change the Weather History Date:

Saturday, October 20, 2012

  Actual Average Record
Temperature  
Mean Temperature 44 °F -  
Max Temperature 48 °F - - ()
Min Temperature 41 °F - - ()
Degree Days  
Heating Degree Days 20    
Moisture  
Dew Point 45 °F    
Average Humidity 99    
Maximum Humidity 100    
Minimum Humidity 93    
Precipitation  
Precipitation 0.00 in - - ()
Sea Level Pressure  
Sea Level Pressure 30.13 in    
Wind  
Wind Speed 1 mph ()    
Max Wind Speed 6 mph    
Max Gust Speed -    
Visibility 0.3 miles    
Events Fog    
T = Trace of Precipitation, MM = Missing Value Source: Averaged Metar Reports

Daily Weather History Graph

Daily Weather History Graph

Search for Another Location

Airport or City:

Trip Planner

Search our weather history database for the weather conditions in past years. The results will help you decide how hot, cold, wet, or windy it might be!

Date:

Astronomy

Oct. 20, 2012 Rise Set
Actual Time 7:28 AM CEST 5:56 PM CEST
Civil Twilight 6:55 AM CEST 6:29 PM CEST
Nautical Twilight 6:18 AM CEST 7:07 PM CEST
Astronomical Twilight 5:40 AM CEST 7:44 PM CEST
Moon 1:08 PM CEST (10/20) 10:05 PM CEST (10/20)
Length of Visible Light 11h 33m
Length of Day
10h 28m
Waxing Crescent, 31% of the Moon is Illuminated
Oct 20
Waxing Crescent
Oct 22
First Quarter
Oct 29
Full
Nov 7
Last Quarter
Nov 13
New

Hourly Weather History & Observations

Time (CEST) Temp. Windchill Dew Point Humidity Pressure Visibility Wind Dir Wind Speed Gust Speed Precip Events Conditions
12:00 AM 44.6 °F - 44.6 °F 100% 30.09 in 2.2 mi Calm Calm - N/A Fog Fog
12:15 AM 44.6 °F - 44.6 °F 100% 30.12 in 0.5 mi Calm Calm - N/A Fog Fog
1:00 AM 41.0 °F - 41.0 °F 100% 30.09 in 0.5 mi West 2.3 mph - N/A Fog Fog
2:00 AM 44.6 °F - 42.8 °F 93% 30.12 in 0.1 mi Calm Calm - N/A Fog Fog
3:00 AM 44.6 °F - 44.6 °F 100% 30.09 in 0.1 mi Calm Calm - N/A Fog Fog
4:00 AM 42.8 °F - 42.8 °F 100% 30.09 in 0.1 mi Calm Calm - N/A Fog Fog
5:00 AM 42.8 °F - 42.8 °F 100% 30.09 in 0.1 mi East 2.3 mph - N/A Fog Fog
6:00 AM 42.8 °F - 41.0 °F 93% 30.09 in 0.1 mi Calm Calm - N/A Fog Fog
7:00 AM 41.0 °F - 41.0 °F 100% 30.09 in 0.1 mi Calm Calm - N/A Fog Fog
8:00 AM 41.0 °F - 41.0 °F 100% 30.12 in 0.1 mi Calm Calm - N/A Fog Fog
9:00 AM 42.8 °F - 42.8 °F 100% 30.12 in 0.1 mi Variable 1.2 mph - N/A Fog Fog
10:00 AM 42.8 °F - 42.8 °F 100% 30.15 in 0.1 mi Variable 1.2 mph - N/A Fog Fog
11:00 AM 44.6 °F 41.4 °F 44.6 °F 100% 30.15 in 0.1 mi NW 5.8 mph - N/A Fog Fog
12:00 PM 44.6 °F 43.1 °F 44.6 °F 100% 30.18 in 0.1 mi NNW 3.5 mph - N/A Fog Fog
1:00 PM 46.4 °F 43.5 °F 46.4 °F 100% 30.15 in 0.2 mi NW 5.8 mph - N/A Fog Fog
2:00 PM 46.4 °F 45.2 °F 46.4 °F 100% 30.15 in 0.6 mi WNW 3.5 mph - N/A   Overcast
3:00 PM 48.2 °F - 46.4 °F 93% 30.15 in 0.6 mi Variable 1.2 mph - N/A   Overcast
4:00 PM 48.2 °F - 48.2 °F 100% 30.15 in 0.6 mi Calm Calm - N/A   Overcast
4:21 PM 48.2 °F - 48.2 °F 100% 30.15 in 0.2 mi WNW 3.5 mph - N/A Fog Fog
5:00 PM 48.2 °F - 48.2 °F 100% 30.15 in 0.2 mi Variable 1.2 mph - N/A Fog Fog
7:00 PM 48.2 °F - 48.2 °F 100% 30.15 in 0.2 mi Variable 1.2 mph - N/A Fog Fog
8:00 PM 48.2 °F - 48.2 °F 100% 30.15 in 0.1 mi Calm Calm - N/A Fog Fog
9:00 PM 48.2 °F - 48.2 °F 100% 30.15 in 0.1 mi Calm Calm - N/A Fog Fog
10:00 PM 48.2 °F - 48.2 °F 100% 30.15 in 0.1 mi Variable 1.2 mph - N/A Fog Fog
11:00 PM 48.2 °F - 48.2 °F 100% 30.15 in 0.1 mi Calm Calm - N/A Fog Fog